This is the latest recevied weather packets stored in our database for station/object DL2GPS-3. If no packets are shown the sender has not sent any weather packets the latest 10 day(s).
| Time | Temp. | Humidity | Pressure | Rain* | Wind** | Luminosity | Snow |
|---|---|---|---|---|---|---|---|
| 1788687310 | 21.11° C | 50% | 1029.2 hPa | - | - | - | - |
| 1788686705 | 21.11° C | 50% | 1029.3 hPa | - | - | - | - |
| 1788686102 | 21.11° C | 50% | 1029.5 hPa | - | - | - | - |
| 1788685496 | 21.67° C | 50% | 1029.5 hPa | - | - | - | - |
| 1788684891 | 20° C | 52% | 1029.4 hPa | - | - | - | - |
| 1788684285 | 20° C | 52% | 1029.5 hPa | - | - | - | - |
| 1788683680 | 20.56° C | 49% | 1029.6 hPa | - | - | - | - |
| 1788683075 | 22.22° C | 46% | 1029.4 hPa | - | - | - | - |
| 1788682470 | 180° C | 49% | 1029.3 hPa | - | - | - | - |
| 1788681864 | 20.56° C | 50% | 1029.3 hPa | - | - | - | - |
| 1788681259 | 20° C | 49% | 1029.3 hPa | - | - | - | - |
| 1788680654 | 20.56° C | 49% | 1029.3 hPa | - | - | - | - |
| 1788680049 | 19.44° C | 50% | 1028.3 hPa | - | - | - | - |
| 1788679443 | 19.44° C | 49% | 1029.2 hPa | - | - | - | - |
| 1788678839 | 20° C | 49% | 1029.3 hPa | - | - | - | - |
| 1788678234 | 19.44° C | 50% | 1029.4 hPa | - | - | - | - |
| 1788677651 | 19.44° C | 50% | 1029.4 hPa | - | - | - | - |
| 1788677023 | 18.33° C | 53% | 1029.6 hPa | - | - | - | - |
| 1788676419 | 20.56° C | 44% | 1029.6 hPa | - | - | - | - |
| 1788675814 | 25° C | 34% | 1029.6 hPa | - | - | - | - |
| 1788675209 | 27.22° C | 32% | 1029.5 hPa | - | - | - | - |
| 1788674603 | 27.22° C | 33% | 1029.5 hPa | - | - | - | - |
| 1788673999 | 27.22° C | 34% | 1029.5 hPa | - | - | - | - |
| 1788673394 | 26.11° C | 36% | 1029.3 hPa | - | - | - | - |
| 1788672789 | 24.44° C | 38% | 1029.3 hPa | - | - | - | - |
* Rain since midnight (hover to see other rain measurements)
** Current wind speed in m/s (hover to see current wind gust speed)